Погода в Залэу

Румыния     47°11′28″N   23°03′49″E
темп.,
°C
ветер,
м/с
пор.,
м/с
влажн.,
%
обл.,
%
осадки,
мм/ч
давл.,
гПа
погр.,
м
17 октября, вс
вс1700:00+9юз1165100 0.0 102010
03:00+7з117210 0.0 102110
06:00+5зсз11809 0.0 102110
09:00+6з11765 0.0 102242
12:00+12зсз11564 0.0 1022523
15:00+14сз33445 0.0 10211037
18:00+11сз22585 0.0 102125
21:00+7з11675 0.0 102310
18 октября, пн
пн1800:00+6юз117246 0.0 102310
03:00+5ююз11765 0.0 102410
06:00+5ю11828 0.0 102410
09:00+6ю117750 0.0 102513
12:00+11сз2256100 0.0 1025668
15:00+13сз3450100 0.0 10241228
18:00+10сз236068 0.0 102553
21:00+7з117396 0.0 102710
19 октября, вт
вт1900:00+8зюз116948 0.0 102812
03:00+5юз11795 0.0 102810
06:00+5зюз1181100 0.0 102910
09:00+8юз117299 0.0 103044
12:00+11св006280 0.0 1030322
15:00+14ссв11525 0.0 1029799
18:00+12всв2261100 0.0 102812
21:00+9юв117358 0.0 102910
20 октября, ср
ср2000:00+8ююв227943 0.0 102918
03:00+7юв228683 0.0 102811
06:00+6юв228894 0.0 102813
09:00+7юв228260 0.0 102771
12:00+13юв335771 0.0 1026429
15:00+16ююв12458 0.0 10241098
18:00+14вюв225588 0.0 102221
21:00+11ююв22666 0.0 102210
21 октября, чт
чт2100:00+9юв227235 0.0 102211
03:00+8юв2273100 0.0 102118
06:00+8юв2272100 0.0 102021
09:00+9юв2266100 0.0 101952
12:00+16ю2544100 0.0 1018541
15:00+19зюз71038100 0.0 10161365
18:00+16зюз51050100 0.0 1016305
21:00+13юз3658100 0.0 1016133